Location: *
(45.9500°N, 9.0833°E)
Time: 00:52:00
(UTC+00:00)

SR - Pass Details

Date: 15 June 2021
Orbit: 577 x 878 km, 66.7° (Epoch: 23 July)

Event Time Altitude Azimuth Distance (km) Brightness Sun altitude
Rises 22:29:00 0° 327° (NNW) 3,410 ? -19.6°
Reaches altitude 10° 22:34:31 10° 10° (N) 2,393 ? -19.8°
Maximum altitude 22:35:08 10° 16° (NNE) 2,370 ? -19.8°
Drops below altitude 10° 22:35:44 10° 23° (NNE) 2,371 ? -19.8°
Sets 22:40:56 0° 67° (ENE) 3,195 ? -20.0°
